sat.trackr.live / text

‹ back to catalog

STARLINK-32540

NORAD 61723 · 2024-196S

PAYLOAD ACTIVE UNKNOWN

§ Identity

Operator
Country
US
Launch date
2024-10-30
Launch site
AFETR
Launch vehicle
Mass (kg)
RCS (m²)

Purposes: comms

External: N2YO · Heavens-Above · Gunter

§ Orbital elements

Epoch: 2026-09-21T07:58:08.276736Z

Period
93.85 min
Inclination
53.1583°
Eccentricity
0.0001575
Mean motion
15.34361044 rev/d
Perigee alt
461.7 km
Apogee alt
463.9 km
Semi-major
6,841.0 km
B*
2.2825e-4
RAAN
233.4710°
Arg perigee
81.6505°
Mean anomaly
278.4677°
Rev number
10,765

§ Raw data

STARLINK-325401 61723U 24196S   26264.33204024  .00007333  00000+0  22825-3 0  99962 61723  53.1583 233.4710 0001575  81.6505 278.4677 15.34361044107650

JSON: /api/v1/satellites/61723 · /tle

For live sub-satellite position, see the globe view (requires WebGL).

§ Visibility from observer

Set your observer location to see the next 7 days of passes ≥ 10°. The values pass through the URL so the page stays shareable.

No JS? Fill the form by hand. The geolocation button needs JavaScript.